Regional Weather Roundup
Issued by NWS

Home | Current Version | Previous Version | Text Only | Print | Product List | Glossary On
Versions: 1 2 3 4 5 6 7 8 9 10 11 12 13 14 15 16 17 18 19 20 21 22 23 24 25 26 27 28 29 30 31 32 33 34 35 36 37 38 39 40 41 42 43 44 45 46 47 48 49 50
000
ASUS45 KABQ 230710
RWRNM
NEW MEXICO REGIONAL WEATHER ROUNDUP
NATIONAL WEATHER SERVICE ALBUQUERQUE NM
100 AM MDT THU MAR 23 2017

NOTE: "FAIR" MEANS FEW OR NO CLOUDS BELOW 12,000 FEET AGL WITH NO
       SIGNIFICANT WEATHER OR OBSTRUCTIONS TO VISION.

      THIS PRODUCT IS RELEASED AS TWO VERSIONS.  ONE VERSION NEAR
      THE TOP OF THE HOUR CONTAINING PRELIMINARY DATA FROM ALBUQUERQUE
      AND OTHER STATIONS.  A FINAL VERSION WITH ADDITIONAL DATA IS
      ISSUED ABOUT 10 MINUTES AFTER THE HOUR.

NMZ501-503-504-510>518-230800-
NORTHWEST PLATEAU/NORTHCENTRAL MOUNTAINS

CITY           SKY/WX    TMP DP  RH WIND       PRES   REMARKS
FARMINGTON     FAIR      54  17  23 S10       29.84F
LOS ALAMOS     FAIR      56  13  18 S8        29.98F
SANTA FE       FAIR      56  14  19 SE12      29.94F
TAOS             N/A     54  12  19 W6        29.97F
ANGEL FIRE     FAIR      48  32  54 S15       30.04F

$$
NMZ402-403-502-505>509-230800-
WESTCENTRAL MOUNTAINS/SOUTHWEST MOUNTAINS

CITY           SKY/WX    TMP DP  RH WIND       PRES   REMARKS
GALLUP         FAIR      47  25  42 SW8       29.94S
GRANTS         FAIR      44  16  32 S5        29.96F
SILVER CITY    FAIR      49  21  32 E3        29.98F

$$
NMZ407-409-411-412-230800-
SOUTHERN DESERTS

CITY           SKY/WX    TMP DP  RH WIND       PRES   REMARKS
DEMING         FAIR      63  17  17 W9        29.93F
LAS CRUCES     FAIR      62  16  17 W8        29.95S
HOLLOMAN AFB   FAIR      62  15  16 SE12      29.95F
ALAMOGORDO     FAIR      63  16  16 SE7       29.93F
T OR C         FAIR      67  14  13 SW14      29.91S

$$
NMZ519>523-230800-
CENTRAL VALLEYS/CENTRAL HIGHLANDS

CITY           SKY/WX    TMP DP  RH WIND       PRES   REMARKS
ALBUQUERQUE    FAIR      63  16  16 S12       29.91F
DOUBLE EAGLE   FAIR      55  19  24 SW10      29.93S
MORIARTY ARPT  FAIR      54  15  22 S8        29.98F
CLINES CORNERS FAIR      52  13  21 SW14      30.02F
BELEN          FAIR      54  17  23 S9        29.91R
SOCORRO        FAIR      59  18  19 S5        29.90R

$$
NMZ524>526-539-540-230800-
SOUTHCENTRAL MOUNTAINS

CITY           SKY/WX    TMP DP  RH WIND       PRES   REMARKS
RUIDOSO        FAIR      54  10  17 SW9       30.06F

$$
NMZ527>531-230800-
NORTHEAST HIGHLANDS/NORTHEAST PLAINS

CITY           SKY/WX    TMP DP  RH WIND       PRES   REMARKS
LAS VEGAS      FAIR      54  39  57 S16       29.98F
RATON          FAIR      50  39  66 W6        29.95F
CLAYTON        FAIR      46  46 100 SE8       29.93F

$$
NMZ532>537-230800-
EASTCENTRAL PLAINS

CITY           SKY/WX    TMP DP  RH WIND       PRES   REMARKS
SANTA ROSA     FAIR      62  50  64 SE7       29.90F
TUCUMCARI      FAIR      63  52  67 SW10      29.88F
CANNON AFB     FAIR      56  56 100 SE10      29.93F
CLOVIS AIRPORT FAIR      57  46  67 S13       29.94F

$$
NMZ028-029-538-230800-
SOUTHEAST PLAINS

CITY           SKY/WX    TMP DP  RH WIND       PRES   REMARKS
ROSWELL        FAIR      68  53  58 S20         N/A
ARTESIA        FAIR      66  59  77 SE18G26   29.89F
CARLSBAD       FAIR      66  59  78 S20G28    29.90R
HOBBS          CLOUDY    63  59  88 S16G23    29.96S


$$



USA.gov is the U.S. government's official web portal to all federal, state and local government web resources and services.